STARLINK-11645, 63316

Orbit data source: Space-Track

STARLINK-11645, 63316 is a payload satellite owned by SpaceX/Seattle (US) in LEO that was launched on Tue, 18 Mar 2025 UTC via an FALCON 9 launch vehicle from the Air Force Eastern Test Range (AFETR). Payload-class satellites include a variety of spacecraft equipped with specific instruments for various scientific and technological missions. These include communications satellites like Starlink; space stations such as the ISS; scientific satellites like the Hubble; Earth observation satellites from companies like Planet Labs, Umbra, and HawkEye 360; GPS; miniature CubeSats for education and research; and military/defense satellites.

Loading next visibility...
Identifier
63316, 2025-057K
Orbit
LEO
Country
Flag of USUS
Related business
Manufacturer
SpaceX/Seattle
Mission
Operational Commercial Communications
Bus & Motor
STARLINK V2MD, Unknown motor
Mass
960 kg wet, ~910 kg dry
Launch date (UTC)
2025-03-18 (6 months ago)
Launch vehicle
FALCON 9
Launch site
Air Force Eastern Test Range (AFETR)
Object type
Payload
Rocket body
Debris
Shape & HBR
Box + 2 Pan, 14.5 m
Radar Cross Section
36.964 m², Large (>1 m²)

Expand to show TLE details & history
Last TLE update: 2 days ago

TLE from 2 days ago
0 STARLINK-11645
1 63316U 25057K   25260.29235655  .00236934  00000-0  17887-2 0  9990
2 63316  42.9982 229.9855 0003404 253.5112 106.5382 15.70957893 29937
Epoch: 2025-09-17T07:00Z
TLE epoch observation values (Epoch: 2025-09-17T07:00:59.605Z)
Latitude
-0.00002°
Longitude
128.26673°
Altitude
356.582 km
Speed
7.697 km/s
True Right ascension
15h 19m 56s
True Declination
0° 00' 00"
Sunlit
Object was in daylight at epoch
Visualization orbit readout
Latitude
Unknown
Longitude
Unknown
Altitude
Unknown
Speed
Unknown
Apparent Right ascension
Unknown
Apparent Declination
Unknown
Sunlit
N/A
Visualization observer readout
Local Sidereal Time
19:29:26
Azimuth
Unknown
Elevation
Unknown
Doppler factor
Unknown
Orbital elements
Apogee altitude
360.433 km
Perigee altitude
355.847 km
Semi-major axis
6,736.277 km
Eccentricity
0.00034
Inclination
42.9982°
RAAN
229.9855°
Arg. of periapsis
253.5112°
True anomaly
106.57559°
Mean anomaly
106.5382°
Eccentric anomaly
106.55689°
Mean motion
3.92567 °/min
Orbital period
91.7 mins
BSTAR
0.0017887
Loading maneuver chart data...
Computing Atmospheric mass density...
Loading historical data...
Loading historical data...
Loading historical data...
Loading historical data...
Loading historical data...
Loading historical data...
Loading historical data...

Documentation

Showing up to 5 results
|